Location: Newark
(42.8481°N, 0.4872°E)
Time: 08:13:05
(UTC+00:00)

Transit 2A Rocket - Pass Details

Date: 30 October 2020
Orbit: 588 x 914 km, 66.7° (Epoch: 29 November)

Event Time Altitude Azimuth Distance (km) Brightness Sun altitude
Rises 09:19:18 0° 216° (SW) 3,532 8.6 24.5°
Reaches altitude 10° 09:21:51 10° 218° (SW) 2,597 8.0 24.7°
Maximum altitude 09:27:56 71° 302° (WNW) 953 5.7 25.4°
Drops below altitude 10° 09:33:50 10° 27° (NNE) 2,520 7.5 26.0°
Sets 09:36:17 0° 30° (NNE) 3,423 8.1 26.3°
